Weather History for Preston, MN

Change the Weather History Date:

Sunday, April 28, 2013

  Actual Average (KRST) Record (KRST)
Temperature  
Mean Temperature 60 °F 52 °F  
Max Temperature 75 °F 63 °F 87 °F (2004)
Min Temperature 46 °F 41 °F 25 °F (1913)
Degree Days  
Heating Degree Days 5 13  
Month to date heating degree days 528  
Since 1 July heating degree days 7400  
Cooling Degree Days 0 0  
Month to date cooling degree days 0  
Year to date cooling degree days 0  
Growing Degree Days 10 (Base 50)    
Moisture  
Dew Point 38 °F    
Average Humidity 45    
Maximum Humidity 74    
Minimum Humidity 22    
Precipitation  
Precipitation 0.00 in 0.13 in 0.63 in (1989)
Month to date precipitation 2.99  
Year to date precipitation 6.56  
Snow  
Snow 0.00 in 0.10 in 0.30 in (1994)
Month to date snowfall 3.2  
Since 1 July snowfall 51.8  
Snow Depth -    
Sea Level Pressure  
Sea Level Pressure 29.86 in    
Wind  
Wind Speed 9 mph (SSW)    
Max Wind Speed 18 mph    
Max Gust Speed 25 mph    
Visibility 10 miles    
Events Thunderstorm    
T = Trace of Precipitation, MM = Missing Value Source: NWS Daily Summary

Daily Weather History Graph

Daily Weather History Graph

Search for Another Location

Airport:

Trip Planner

Search our weather history database for the weather conditions in past years. The results will help you decide how hot, cold, wet, or windy it might be!

Date:

Astronomy

Apr. 28, 2013 Rise Set
Actual Time 6:04 AM CDT 8:08 PM CDT
Civil Twilight 5:33 AM CDT 8:39 PM CDT
Nautical Twilight 4:55 AM CDT 9:17 PM CDT
Astronomical Twilight 4:13 AM CDT 9:59 PM CDT
Moon 11:42 PM CDT (4/28) 8:18 AM CDT (4/28)
Length of Visible Light 15h 05m
Length of Day
14h 03m
Waning Gibbous, 88% of the Moon is Illuminated
Apr 28
Waning Gibbous
May 2
Last Quarter
May 9
New
May 17
First Quarter
May 24
Full

Hourly Weather History & Observations

Time (CDT) Temp. Dew Point Humidity Pressure Visibility Wind Dir Wind Speed Gust Speed Precip Events Conditions
12:14 AM 52.7 °F 38.5 °F 58% 29.99 in 10.0 mi South 6.9 mph - N/A   Clear
12:34 AM 52.7 °F 38.5 °F 58% 29.99 in 10.0 mi South 6.9 mph - N/A   Clear
12:54 AM 53.2 °F 38.3 °F 57% 29.97 in 10.0 mi South 5.8 mph - N/A   Clear
1:14 AM 52.7 °F 37.9 °F 57% 29.96 in 10.0 mi SSE 4.6 mph - N/A   Clear
1:34 AM 52.2 °F 38.3 °F 59% 29.95 in 10.0 mi South 4.6 mph - N/A   Clear
1:54 AM 52.3 °F 37.9 °F 58% 29.95 in 10.0 mi SSW 5.8 mph - N/A   Clear
2:14 AM 52.0 °F 37.9 °F 59% 29.94 in 10.0 mi SSW 6.9 mph - N/A   Clear
2:34 AM 50.4 °F 38.3 °F 63% 29.94 in 10.0 mi SSW 8.1 mph - N/A   Clear
2:54 AM 50.4 °F 38.5 °F 64% 29.94 in 10.0 mi South 5.8 mph - N/A   Clear
3:14 AM 49.5 °F 38.5 °F 66% 29.94 in 10.0 mi SSW 5.8 mph - N/A   Clear
3:34 AM 48.4 °F 38.1 °F 68% 29.93 in 10.0 mi SSE 4.6 mph - N/A   Clear
3:54 AM 49.1 °F 38.7 °F 67% 29.94 in 10.0 mi Calm Calm - N/A   Clear
4:14 AM 48.7 °F 38.5 °F 68% 29.94 in 10.0 mi SW 5.8 mph - N/A   Clear
4:34 AM 48.2 °F 38.5 °F 69% 29.94 in 10.0 mi SSW 6.9 mph - N/A   Clear
4:54 AM 48.0 °F 38.5 °F 70% 29.93 in 10.0 mi SW 5.8 mph - N/A   Clear
5:14 AM 47.5 °F 38.5 °F 71% 29.93 in 10.0 mi SW 6.9 mph - N/A   Clear
5:34 AM 47.5 °F 38.7 °F 71% 29.93 in 10.0 mi SW 6.9 mph - N/A   Clear
5:54 AM 47.3 °F 38.7 °F 72% 29.93 in 10.0 mi SW 6.9 mph - N/A   Clear
6:14 AM 47.3 °F 38.8 °F 72% 29.93 in 10.0 mi SW 6.9 mph - N/A   Clear
6:34 AM 47.3 °F 38.8 °F 72% 29.93 in 10.0 mi SW 5.8 mph - N/A   Clear
6:55 AM 46.8 °F 38.8 °F 74% 29.93 in 7.0 mi SSW 5.8 mph - N/A   Clear
7:14 AM 48.4 °F 39.6 °F 72% 29.94 in 10.0 mi SSW 5.8 mph - N/A   Clear
7:34 AM 50.0 °F 40.3 °F 69% 29.94 in 10.0 mi SSW 5.8 mph - N/A   Clear
7:55 AM 51.3 °F 40.3 °F 66% 29.93 in 10.0 mi SSW 6.9 mph - N/A   Clear
8:15 AM 53.1 °F 40.5 °F 62% 29.92 in 10.0 mi SSW 9.2 mph - N/A   Clear
8:34 AM 55.8 °F 40.8 °F 57% 29.91 in 10.0 mi South 5.8 mph - N/A   Clear
8:54 AM 58.8 °F 40.5 °F 51% 29.91 in 10.0 mi SSW 8.1 mph - N/A   Clear
9:15 AM 60.8 °F 40.1 °F 46% 29.90 in 10.0 mi South 10.4 mph 16.1 mph N/A   Clear
9:34 AM 61.2 °F 40.6 °F 47% 29.89 in 10.0 mi SSW 12.7 mph 18.4 mph N/A   Clear
9:55 AM 62.2 °F 39.4 °F 43% 29.90 in 10.0 mi SW 12.7 mph 16.1 mph N/A   Clear
10:14 AM 62.6 °F 39.6 °F 43% 29.89 in 10.0 mi South 13.8 mph 18.4 mph N/A   Clear
10:34 AM 63.9 °F 39.6 °F 41% 29.89 in 10.0 mi South 15.0 mph 19.6 mph N/A   Clear
10:55 AM 64.6 °F 39.6 °F 40% 29.89 in 10.0 mi South 11.5 mph - N/A   Clear
11:14 AM 65.5 °F 39.0 °F 38% 29.89 in 10.0 mi SSW 11.5 mph 18.4 mph N/A   Clear
11:35 AM 66.2 °F 39.4 °F 37% 29.88 in 10.0 mi South 12.7 mph 17.3 mph N/A   Clear
11:54 AM 67.3 °F 39.0 °F 35% 29.88 in 10.0 mi South 11.5 mph - N/A   Clear
12:14 PM 67.6 °F 38.3 °F 34% 29.87 in 10.0 mi SSW 13.8 mph 19.6 mph N/A   Clear
12:34 PM 68.5 °F 37.9 °F 33% 29.86 in 10.0 mi South 12.7 mph 17.3 mph N/A   Clear
12:54 PM 69.4 °F 35.8 °F 29% 29.86 in 10.0 mi South 16.1 mph - N/A   Clear
1:15 PM 70.5 °F 35.8 °F 28% 29.84 in 10.0 mi South 18.4 mph 24.2 mph N/A   Clear
1:34 PM 71.1 °F 34.7 °F 26% 29.84 in 10.0 mi South 13.8 mph 18.4 mph N/A   Clear
1:54 PM 71.6 °F 34.2 °F 25% 29.84 in 10.0 mi South 13.8 mph 19.6 mph N/A   Clear
2:14 PM 72.0 °F 34.7 °F 26% 29.83 in 10.0 mi SSW 13.8 mph 19.6 mph N/A   Clear
2:35 PM 72.5 °F 33.8 °F 24% 29.82 in 10.0 mi South 16.1 mph 24.2 mph N/A   Clear
2:54 PM 73.0 °F 34.0 °F 24% 29.82 in 10.0 mi South 10.4 mph 25.3 mph N/A   Clear
3:15 PM 73.0 °F 34.0 °F 24% 29.81 in 10.0 mi South 15.0 mph 21.9 mph N/A   Clear
3:34 PM 73.4 °F 34.7 °F 24% 29.80 in 10.0 mi SSW 15.0 mph 23.0 mph N/A   Clear
3:54 PM 74.1 °F 34.5 °F 24% 29.79 in 10.0 mi South 15.0 mph 24.2 mph N/A   Clear
4:15 PM 74.3 °F 35.1 °F 24% 29.78 in 10.0 mi South 15.0 mph - N/A   Clear
4:34 PM 74.3 °F 34.9 °F 24% 29.78 in 10.0 mi South 15.0 mph 25.3 mph N/A   Clear
4:54 PM 74.3 °F 34.3 °F 23% 29.77 in 10.0 mi SSW 16.1 mph 23.0 mph N/A   Clear
5:15 PM 74.3 °F 34.2 °F 23% 29.77 in 10.0 mi SSW 13.8 mph 21.9 mph N/A   Clear
5:55 PM 74.8 °F 34.3 °F 23% 29.77 in 10.0 mi SSW 12.7 mph - N/A   Clear
6:14 PM 74.8 °F 33.8 °F 22% 29.76 in 10.0 mi SSW 12.7 mph - N/A   Clear
6:35 PM 74.5 °F 35.4 °F 24% 29.75 in 10.0 mi South 10.4 mph 18.4 mph N/A   Clear
6:54 PM 73.8 °F 36.0 °F 25% 29.75 in 10.0 mi South 12.7 mph - N/A   Clear
7:14 PM 72.3 °F 37.0 °F 28% 29.75 in 10.0 mi South 12.7 mph 17.3 mph N/A   Clear
7:35 PM 70.9 °F 37.4 °F 29% 29.75 in 10.0 mi South 10.4 mph - N/A   Clear
7:54 PM 69.6 °F 38.5 °F 32% 29.75 in 10.0 mi South 8.1 mph - N/A   Clear
8:14 PM 68.2 °F 38.8 °F 34% 29.75 in 10.0 mi SSE 9.2 mph - N/A   Clear
8:34 PM 67.6 °F 39.2 °F 35% 29.75 in 10.0 mi SSE 9.2 mph - N/A   Clear
8:54 PM 67.3 °F 39.4 °F 36% 29.75 in 10.0 mi SSE 9.2 mph - N/A   Clear
9:14 PM 65.5 °F 40.5 °F 40% 29.77 in 10.0 mi South 6.9 mph - N/A Thunderstorm Clear
9:34 PM 64.2 °F 41.0 °F 43% 29.77 in 10.0 mi South 6.9 mph - N/A   Clear
9:54 PM 63.7 °F 41.7 °F 45% 29.78 in 10.0 mi South 9.2 mph - N/A   Clear
10:14 PM 63.3 °F 41.5 °F 45% 29.78 in 10.0 mi South 11.5 mph - N/A   Clear
10:34 PM 63.3 °F 41.7 °F 45% 29.77 in 10.0 mi South 9.2 mph - N/A   Clear
10:54 PM 63.1 °F 41.9 °F 46% 29.78 in 10.0 mi SSW 8.1 mph - N/A   Clear
11:15 PM 63.0 °F 42.1 °F 46% 29.77 in 10.0 mi SSW 10.4 mph - N/A   Clear
11:34 PM 63.5 °F 42.1 °F 46% 29.77 in 10.0 mi SSW 9.2 mph - N/A Thunderstorm Mostly Cloudy
11:54 PM 63.5 °F 42.6 °F 47% 29.76 in 10.0 mi SSW 13.8 mph - N/A   Overcast